Regional Weather Roundup
Issued by NWS Wakefield, VA

Home | Current Version | Previous Version | Graphics & Text | Print | Product List | Glossary On
Versions: 1 2 3 4 5 6 7 8 9 10 11 12 13 14 15 16 17 18 19 20 21 22 23 24 25 26 27 28 29 30 31 32 33 34 35 36 37 38 39 40 41 42 43 44 45 46 47 48 49 50
000
ASUS41 KAKQ 032315
RWRAKQ

REGIONAL WEATHER ROUNDUP
NATIONAL WEATHER SERVICE WAKEFIELD VA
700 PM EDT TUE MAY 03 2016

Note: "fair" indicates few or no clouds below 12,000 feet with no
significant weather and/or obstructions to visibility. * = Denotes
station may not report precipitation (e.g., rain,snow,etc.),
thunder or fog.

VAZ042-051-052>054-056-040000-
NORTHERN VIRGINIA

CITY           SKY/WX    TMP DP  RH WIND       PRES   REMARKS
WASH NATIONAL  PTSUNNY   63  59  87 E13       29.75S
DULLES         PTSUNNY   64  57  78 E9        29.74S
FORT BELVOIR   FAIR      64  61  87 VRB6      29.74R
QUANTICO       PTSUNNY   65  61  87 NE6       29.74S
FREDERICKSBRG* NOT AVBL
STAFFORD*      CLOUDY    63  60  90 E7        29.78R
WARRENTON      FAIR      66  57  71 NE5       29.74R
CULPEPER*      PTSUNNY   66  62  87 CALM      29.75R
MANASSAS*      SUNNY     66  61  82 SE6       29.73F
LEESBURG*      CLOUDY    64  61  88 SE5       29.74F
WINCHESTER     LGT RAIN  64  59  82 CALM      29.75R
FRONT ROYAL*   CLOUDY    63  59  88 CALM      29.75R
LURAY*         MOCLDY    64  63  94 NE7       29.74R
$$

VAZ048-049-060>072-079>083-040000-
CENTRAL AND SOUTH CENTRAL VIRGINIA

CITY           SKY/WX    TMP DP  RH WIND       PRES   REMARKS
RICHMOND       LGT RAIN  61  58  90 NE14      29.74R
CHESTERFIELD*  MOCLDY    64  50  59 NE8       29.75R
PETERSBURG*    LGT RAIN  71  67  89 CALM      29.71F
HANOVER        LGT RAIN  59  57  93 CALM      29.76F
TAPPAHANNOCK*  RAIN      62  62 100 N7G17     29.77R
QUINTON*       CLOUDY    62  58  86 N12G23    29.75R
CHARLOTTSVILLE FAIR      67  58  72 NE9       29.73S
GORDONSVILLE*  FAIR      64  60  85 NE3       29.73S
ORANGE*        FAIR      64  61  88 NE5       29.75S
LOUISA*        FAIR      64  63  94 CALM      29.73R
BUMPASS*       CLOUDY    60  58  94 E3        29.73F
FARMVILLE*     FAIR      69  66  88 S3        29.71S
CREWE*         FAIR      64  64 100 CALM      29.72F
FORT PICKETT*  NOT AVBL
CHASE CITY*    FAIR      65  64  94 CALM      29.73F
CLARKSVILLE*   MOCLDY    70  61  73 CALM      29.72S
SOUTH HILL*    CLOUDY    66  65  96 S5        29.79R THUNDER
LAWRENCEVILLE* CLOUDY    68  65  89 N7G16     29.73R
EMPORIA*         N/A     70  66  88 CALM      29.73F
$$

VAZ088>098-040000-
SOUTHEAST VIRGINIA

CITY           SKY/WX    TMP DP  RH WIND       PRES   REMARKS
NORFOLK        FAIR      74  63  68 SW9       29.72S
VIRGINIA BEACH MOCLDY    73  65  75 SE7       29.72S
NORFOLK NAVAL  MOCLDY    74  65  73 S7        29.73S
WEST POINT*    CLOUDY    65  58  78 N7G24     29.76R
SALUDA*        CLOUDY    66  63  90 W5        29.73R
NEWPORT NEWS   FAIR      73  64  73 S7        29.72S
LANGLEY AFB    FAIR      73  65  75 S6        29.72S
FORT EUSTIS    FAIR      72  63  71 S3        29.70S
WILLIAMSBURG*  FAIR      72  66  83 CALM      29.72S
HR EXEC AP*    FAIR      73  64  73 S6        29.74S
FRANKLIN*      FAIR      73  65  77 S6        29.72S
US460-WAKEFLD  PTSUNNY   73  64  73 CALM      29.72R
$$

VAZ020-022-025-037-045-040000-
WEST CENTRAL AND SOUTHWEST VIRGINIA

CITY           SKY/WX    TMP DP  RH WIND       PRES   REMARKS
STAUNTON*      FAIR      66  60  81 NE6       29.75S
WAYNESBORO*    MOCLDY    71  52  51 SW3       29.73S
HOT SPRINGS VA PTSUNNY   59  46  60 W16G25    29.81R
LYNCHBURG      FAIR      68  62  81 S6        29.75R
DANVILLE       LGT RAIN  63  61  93 CALM      29.75R FOG
SOUTH BOSTON*  FAIR      67  63  87 CALM      29.74S
MARTINSVILLE   LGT RAIN  64  62  91 SE5       29.77R
ROANOKE        PTSUNNY   73  51  46 NW10      29.77R
BLACKSBURG     FAIR      65  50  57 NW10G16   29.82S
DUBLIN*        FAIR      66  51  57 NW13      29.82R
MARION*        PTSUNNY   63  49  59 NW12G17   29.85S
HILLSVILLE*    FAIR      64  51  62 NW16G22   29.80S
RICHLANDS*     FAIR      58  50  73 NW12      29.86R
WISE*          CLOUDY    59  41  51 W7        29.89S
ABINGDON*      PTSUNNY   65  46  50 NW9       29.84R
$$

MDZ021>025-VAZ099-100-040000-
SOUTHERN MARYLAND AND THE DELMARVA PENINSULA

CITY           SKY/WX    TMP DP  RH WIND       PRES   REMARKS
PATUXENT RIVER LGT RAIN  61  58  90 N12       29.78R FOG
BAY BRIDGE APT NOT AVBL
LEONARDTOWN    CLOUDY    59  55  88 CALM      29.81R
DOVER          CLOUDY    56  56 100 NE8       29.78F
GEORGETOWN     CLOUDY    57  56  96 NE8       29.80R FOG
EASTON         CLOUDY   N/A N/A N/A E6        29.82R
CAMBRIDGE      CLOUDY    61  57  88 N6        29.78R
SALISBURY      CLOUDY    60  57  89 NE10      29.77R
OCEAN CITY     CLOUDY    54  53  97 NE8       29.79R FOG
WALLOPS ISLAND LGT RAIN  57  56  96 E17G24    29.78R
ACCOMACK*      CLOUDY    68  54  60 SE5       29.75R
$$

NCZ012>017-030>032-040000-
NORTH CENTRAL AND EASTERN NORTH CAROLINA

CITY           SKY/WX    TMP DP  RH WIND       PRES   REMARKS
ROANOKE RAPIDS MOCLDY    72  64  78 CALM      29.71F
RALEIGH        CLOUDY    66  63  90 S6        29.73F
ELIZABETH CITY CLEAR     72  65  78 S9        29.75R
AHOSKIE*       MOSUNNY   72  66  82 S5        29.73S
EDENTON*       PTCLDY    74  67  78 S7        29.75S
CURRITUCK*     NOT AVBL
KILL DEVIL HLS CLEAR     74  65  71 S3        29.74F
MANTEO         NOT AVBL
CAPE HATTERAS  CLOUDY    70  66  87 SW12      29.78F
TARBORO*       FAIR      76  66  73 S3        29.73S
GOLDSBORO      CLOUDY    76  71  84 S7        29.71F
WASHINGTON     MOSUNNY   75  66  74 S8        29.73F
GREENVILLE     MOSUNNY   77  66  69 SW9       29.77S
NEW BERN       CLOUDY    71  65  81 S8        29.77S
WILMINGTON     PTSUNNY   73  68  84 S8        29.78R
$$

VAZ048-040000-
ELSEWHERE

CITY           SKY/WX    TMP DP  RH WIND       PRES   REMARKS
HARRISBURG PA  PTSUNNY   60  53  77 SE10      29.77R
BALTIMORE      LGT RAIN  60  56  86 E14       29.76F
ANNAPOLIS      CLOUDY    61  57  87 E6        29.78S
ANDREWS AFB    PTSUNNY   61  59  91 E12       29.74S
PHILADELPHIA   CLOUDY    57  51  80 E7        29.82R
HENDERSON NC   CLOUDY    75  64  67 S7        29.72S
GREENSBORO     TSTM      70  59  68 SW7       29.73S
ROCKY MOUNT    LGT RAIN  72  67  84 S8        29.73R
$$

VAZ100-040000-
MARINE

STATION/POSITION TIME  TEMP    WIND        PRES    WAVE   SWELL
                       AIR SEA DIR/SP/G            HT/PER HT/PER
                 (UTC) (F)     (DEG/KT/KT) (MB)    (FT/S) (FT/S)
BRANDYWINE LGT   2200   55                 1008.8R
CAPE MAY NJ      2200   55 59              1008.5R
LEWES DE         2200   54 57              1008.7R
15NM E FENWICK I 2250   52 53              1008.5R   3/ 6
OCEAN-CITY-INLET 2200   54 55              1007.8R
WACHAPREAGUE VA  2200   66 65              1006.8R
THOMAS POINT MD  2300   60 59   60/  7/  9 1009.9R
GOOSES REEF MD   2300   61 60   50/  6/  8 1009.9R   1/ 3
COVE POINT MD    2200   61                 1008.4R
SOLOMONS ISLAND  2200   62 61                N/A
BISHOPS HEAD MD  2200   67 66              1006.5R
PINEY POINT MD   2200           60/  9/ 11   N/A
POTOMAC MD       2300   63 61   10/ 17/ 23 1006.6R
CAMBRIDGE MD     2200   63 61              1007.0R
LEWISETTA VA     2200   65 65              1006.5S
RAPPAHANNOCK LGT 2200                      1007.4R
STINGRAY PT      2200   66 65  120/  6/  6 1007.0S   0
YORK RVR RNG VA  2200   65                 1005.7R
YORKTOWN VA      2200   66 63              1005.9R
JAMESTOWN VA     2300   72 68  150/  2/  2   N/A     0
DOMINION TERM VA 2200   72                 1006.3F
KIPTOPEKE VA     2200      64                N/A
CHES BAY BRIDGE  2200   68 62              1006.3R
CAPE HENRY VA    2200   68                   N/A
CHESAPEAKE LGHT  2200   63     170/ 15/ 16 1007.6F
WILLOUBY STN VA  2200   74                 1007.4S
CAPE HENRY BUOY  2212      60                N/A     3/ 6
CAPE CHARLES BUO 2226      60                N/A     2/ 6   2/ 8
OFFSHORE WE BUOY 2221      57                N/A     4/ 7   3/ 7
64NM E OF VA BCH 2250   58 55  170/ 10/ 12 1007.1F   5/ 7   5/ 7
44100 DUCK FRF   2224      62                N/A     3/ 6
44056 DUCK FRF   2211      59                N/A     2/ 9
OREGON INLET NC  2200   69 71              1007.9F
HATTERAS NC      2200   70 69              1008.7S
DIAMOND SHLS NC  2250   73 72  200/ 19/ 23 1008.1F   4/ 7   3/ 7
CAPE LOOKOUT NC  2300   70     190/  9/ 11 1007.8F
$$



USA.gov is the U.S. government's official web portal to all federal, state and local government web resources and services.